Location: Brachstadt
(48.6975°N, 10.6755°E)
Time: 03:06:11
(UTC+00:00)

Cosmos 1072 Rocket - Pass Details

Date: 18 September 2020
Orbit: 949 x 1008 km, 82.9° (Epoch: 24 October)

Event Time Altitude Azimuth Distance (km) Brightness Sun altitude
Rises 18:47:58 0° 185° (S) 3,647 7.4 -14.6°
Reaches altitude 10° 18:50:27 10° 185° (S) 2,712 6.7 -14.9°
Maximum altitude 18:56:40 87° 100° (E) 993 4.5 -15.9°
Drops below altitude 10° 19:03:04 10° 10° (N) 2,772 7.0 -16.9°
Sets 19:05:37 0° 10° (N) 3,732 7.7 -17.3°
